Time,TemperatureF,DewpointF,PressureIn,WindDirection,WindDirectionDegrees,WindSpeedMPH,WindSpeedGustMPH,Humidity,HourlyPrecipIn,Conditions,Clouds,dailyrainin,SoftwareType,DateUTC
2013-02-10 00:01:00,20.0,12.0,-100.00,WNW,290,6.0,11.0,71,-99.99,,,-99.99,,2013-02-10 05:01:00,
2013-02-10 00:11:00,20.0,12.0,-100.00,WNW,290,6.0,11.0,71,-99.99,,,-99.99,,2013-02-10 05:11:00,
2013-02-10 00:23:00,20.0,12.0,-100.00,West,280,4.0,7.0,72,-99.99,,,-99.99,,2013-02-10 05:23:00,
2013-02-10 00:32:00,20.0,13.0,-100.00,West,275,4.0,7.0,73,-99.99,,,-99.99,,2013-02-10 05:32:00,
2013-02-10 00:42:00,20.0,13.0,-100.00,West,275,4.0,7.0,73,-99.99,,,-99.99,,2013-02-10 05:42:00,
2013-02-10 00:52:00,20.0,13.0,-100.00,West,270,4.0,6.0,74,-99.99,,,-99.99,,2013-02-10 05:52:00,
2013-02-10 01:02:00,19.0,13.0,-100.00,West,280,4.0,6.0,76,-99.99,,,-99.99,,2013-02-10 06:02:00,
2013-02-10 01:11:00,19.0,13.0,-100.00,West,280,4.0,6.0,76,-99.99,,,-99.99,,2013-02-10 06:11:00,
2013-02-10 01:21:00,19.0,13.0,-100.00,WNW,295,4.0,7.0,76,-99.99,,,-99.99,,2013-02-10 06:21:00,
2013-02-10 01:32:00,19.0,13.0,-100.00,West,275,4.0,9.0,76,-99.99,,,-99.99,,2013-02-10 06:32:00,
2013-02-10 01:42:00,19.0,13.0,-100.00,West,275,4.0,9.0,76,-99.99,,,-99.99,,2013-02-10 06:42:00,
2013-02-10 01:51:00,20.0,13.0,-100.00,WNW,285,4.0,6.0,76,-99.99,,,-99.99,,2013-02-10 06:51:00,
2013-02-10 02:01:00,20.0,14.0,-100.00,West,275,2.0,6.0,77,-99.99,,,-99.99,,2013-02-10 07:01:00,
2013-02-10 02:11:00,20.0,14.0,-100.00,West,275,2.0,6.0,77,-99.99,,,-99.99,,2013-02-10 07:11:00,
2013-02-10 02:21:00,20.0,14.0,-100.00,WNW,285,5.0,8.0,77,-99.99,,,-99.99,,2013-02-10 07:21:00,
2013-02-10 02:32:00,20.0,14.0,-100.00,WSW,255,4.0,9.0,76,-99.99,,,-99.99,,2013-02-10 07:32:00,
2013-02-10 02:42:00,20.0,14.0,-100.00,WSW,255,4.0,9.0,76,-99.99,,,-99.99,,2013-02-10 07:42:00,
2013-02-10 02:51:00,21.0,14.0,-100.00,West,280,3.0,6.0,76,-99.99,,,-99.99,,2013-02-10 07:51:00,
2013-02-10 03:01:00,21.0,14.0,-100.00,West,280,5.0,8.0,75,-99.99,,,-99.99,,2013-02-10 08:01:00,
2013-02-10 03:11:00,21.0,14.0,-100.00,West,280,5.0,8.0,75,-99.99,,,-99.99,,2013-02-10 08:11:00,
2013-02-10 03:21:00,21.0,15.0,-100.00,West,275,6.0,11.0,75,-99.99,,,-99.99,,2013-02-10 08:21:00,
2013-02-10 03:32:00,22.0,15.0,-100.00,WNW,300,8.0,14.0,74,-99.99,,,-99.99,,2013-02-10 08:32:00,
2013-02-10 03:43:00,22.0,15.0,-100.00,WNW,300,8.0,14.0,74,-99.99,,,-99.99,,2013-02-10 08:43:00,
2013-02-10 03:52:00,21.0,15.0,-100.00,West,275,7.0,14.0,75,-99.99,,,-99.99,,2013-02-10 08:52:00,
2013-02-10 04:02:00,21.0,14.0,-100.00,West,280,7.0,15.0,76,-99.99,,,-99.99,,2013-02-10 09:02:00,
2013-02-10 04:11:00,21.0,14.0,-100.00,West,280,7.0,15.0,76,-99.99,,,-99.99,,2013-02-10 09:11:00,
2013-02-10 04:21:00,20.0,14.0,-100.00,WNW,285,7.0,13.0,77,-99.99,,,-99.99,,2013-02-10 09:21:00,
2013-02-10 04:32:00,21.0,15.0,-100.00,WNW,285,7.0,13.0,77,-99.99,,,-99.99,,2013-02-10 09:32:00,
2013-02-10 04:42:00,21.0,15.0,-100.00,WNW,285,7.0,13.0,77,-99.99,,,-99.99,,2013-02-10 09:42:00,
2013-02-10 04:51:00,20.0,14.0,-100.00,West,270,9.0,14.0,77,-99.99,,,-99.99,,2013-02-10 09:51:00,
2013-02-10 05:01:00,20.0,15.0,-100.00,WNW,290,6.0,13.0,78,-99.99,,,-99.99,,2013-02-10 10:01:00,
2013-02-10 05:11:00,20.0,15.0,-100.00,WNW,290,6.0,13.0,78,-99.99,,,-99.99,,2013-02-10 10:11:00,
2013-02-10 05:21:00,20.0,15.0,-100.00,WNW,295,8.0,14.0,78,-99.99,,,-99.99,,2013-02-10 10:21:00,
2013-02-10 05:32:00,21.0,15.0,-100.00,West,275,8.0,11.0,78,-99.99,,,-99.99,,2013-02-10 10:32:00,
2013-02-10 05:42:00,21.0,15.0,-100.00,West,275,8.0,11.0,78,-99.99,,,-99.99,,2013-02-10 10:42:00,
2013-02-10 05:51:00,21.0,15.0,-100.00,West,275,8.0,14.0,78,-99.99,,,-99.99,,2013-02-10 10:51:00,
2013-02-10 06:01:00,21.0,16.0,-100.00,West,280,9.0,15.0,78,-99.99,,,-99.99,,2013-02-10 11:01:00,
2013-02-10 06:11:00,21.0,16.0,-100.00,West,280,9.0,15.0,78,-99.99,,,-99.99,,2013-02-10 11:11:00,
2013-02-10 06:22:00,21.0,16.0,-100.00,WNW,295,9.0,14.0,78,-99.99,,,-99.99,,2013-02-10 11:22:00,
2013-02-10 06:32:00,22.0,16.0,-100.00,WNW,300,7.0,15.0,78,-99.99,,,-99.99,,2013-02-10 11:32:00,
2013-02-10 06:42:00,22.0,16.0,-100.00,WNW,300,7.0,15.0,78,-99.99,,,-99.99,,2013-02-10 11:42:00,
2013-02-10 06:52:00,22.0,16.0,-100.00,West,275,8.0,14.0,78,-99.99,,,-99.99,,2013-02-10 11:52:00,
2013-02-10 07:02:00,22.0,16.0,-100.00,WNW,285,4.0,14.0,78,-99.99,,,-99.99,,2013-02-10 12:02:00,
2013-02-10 07:12:00,22.0,16.0,-100.00,WNW,285,4.0,14.0,78,-99.99,,,-99.99,,2013-02-10 12:12:00,
2013-02-10 07:22:00,22.0,16.0,-100.00,West,275,4.0,7.0,78,-99.99,,,-99.99,,2013-02-10 12:22:00,
2013-02-10 07:32:00,23.0,17.0,-100.00,NW,305,4.0,6.0,78,-99.99,,,-99.99,,2013-02-10 12:32:00,
2013-02-10 07:42:00,23.0,17.0,-100.00,NW,305,4.0,6.0,78,-99.99,,,-99.99,,2013-02-10 12:42:00,
2013-02-10 07:52:00,22.0,17.0,-100.00,West,265,4.0,11.0,78,-99.99,,,-99.99,,2013-02-10 12:52:00,
2013-02-10 08:02:00,23.0,17.0,-100.00,West,265,4.0,8.0,78,-99.99,,,-99.99,,2013-02-10 13:02:00,
2013-02-10 08:12:00,23.0,17.0,-100.00,West,265,4.0,8.0,78,-99.99,,,-99.99,,2013-02-10 13:12:00,
2013-02-10 08:21:00,23.0,17.0,-100.00,West,275,3.0,9.0,79,-99.99,,,-99.99,,2013-02-10 13:21:00,
2013-02-10 08:31:00,23.0,17.0,-100.00,West,270,5.0,11.0,79,-99.99,,,-99.99,,2013-02-10 13:31:00,
2013-02-10 08:42:00,23.0,17.0,-100.00,West,270,5.0,11.0,79,-99.99,,,-99.99,,2013-02-10 13:42:00,
2013-02-10 08:51:00,23.0,17.0,-100.00,WSW,255,4.0,10.0,79,-99.99,,,-99.99,,2013-02-10 13:51:00,
2013-02-10 09:02:00,23.0,17.0,-100.00,SSW,200,2.0,7.0,79,-99.99,,,-99.99,,2013-02-10 14:02:00,
2013-02-10 09:11:00,23.0,17.0,-100.00,SSW,200,2.0,7.0,79,-99.99,,,-99.99,,2013-02-10 14:11:00,
2013-02-10 09:22:00,23.0,17.0,-100.00,WNW,300,5.0,9.0,79,-99.99,,,-99.99,,2013-02-10 14:22:00,
2013-02-10 09:32:00,23.0,17.0,-100.00,WNW,300,5.0,9.0,79,-99.99,,,-99.99,,2013-02-10 14:32:00,
2013-02-10 09:52:00,23.0,17.0,-100.00,WNW,295,11.0,16.0,78,-99.99,,,-99.99,,2013-02-10 14:52:00,
2013-02-10 10:02:00,24.0,18.0,-100.00,WNW,285,9.0,14.0,77,-99.99,,,-99.99,,2013-02-10 15:02:00,
2013-02-10 10:12:00,24.0,18.0,-100.00,WNW,285,9.0,14.0,77,-99.99,,,-99.99,,2013-02-10 15:12:00,
2013-02-10 10:22:00,25.0,18.0,-100.00,South,190,4.0,11.0,76,-99.99,,,-99.99,,2013-02-10 15:22:00,
2013-02-10 10:32:00,25.0,18.0,-100.00,West,260,7.0,10.0,74,-99.99,,,-99.99,,2013-02-10 15:32:00,
2013-02-10 10:42:00,25.0,18.0,-100.00,West,260,7.0,10.0,74,-99.99,,,-99.99,,2013-02-10 15:42:00,
2013-02-10 10:52:00,27.0,19.0,-100.00,West,260,4.0,9.0,72,-99.99,,,-99.99,,2013-02-10 15:52:00,
2013-02-10 11:02:00,27.0,19.0,-100.00,West,260,4.0,10.0,70,-99.99,,,-99.99,,2013-02-10 16:02:00,
2013-02-10 11:12:00,27.0,19.0,-100.00,West,260,4.0,10.0,70,-99.99,,,-99.99,,2013-02-10 16:12:00,
2013-02-10 11:22:00,27.0,19.0,-100.00,West,270,6.0,11.0,70,-99.99,,,-99.99,,2013-02-10 16:22:00,
2013-02-10 11:32:00,29.0,19.0,-100.00,West,265,5.0,10.0,68,-99.99,,,-99.99,,2013-02-10 16:32:00,
2013-02-10 11:42:00,29.0,19.0,-100.00,West,265,5.0,10.0,68,-99.99,,,-99.99,,2013-02-10 16:42:00,
2013-02-10 11:52:00,29.0,20.0,-100.00,South,185,6.0,11.0,69,-99.99,,,-99.99,,2013-02-10 16:52:00,
2013-02-10 12:02:00,27.0,19.0,-100.00,SSW,195,6.0,10.0,73,-99.99,,,-99.99,,2013-02-10 17:02:00,
2013-02-10 12:12:00,27.0,19.0,-100.00,SSW,195,6.0,10.0,73,-99.99,,,-99.99,,2013-02-10 17:12:00,
2013-02-10 12:22:00,27.0,19.0,-100.00,SW,215,9.0,14.0,71,-99.99,,,-99.99,,2013-02-10 17:22:00,
2013-02-10 12:32:00,28.0,19.0,-100.00,SW,215,7.0,14.0,70,-99.99,,,-99.99,,2013-02-10 17:32:00,
2013-02-10 12:42:00,28.0,19.0,-100.00,SW,215,7.0,14.0,70,-99.99,,,-99.99,,2013-02-10 17:42:00,
2013-02-10 12:52:00,30.0,20.0,-100.00,SSW,200,5.0,9.0,66,-99.99,,,-99.99,,2013-02-10 17:52:00,
2013-02-10 13:02:00,30.0,20.0,-100.00,SSW,200,5.0,9.0,67,-99.99,,,-99.99,,2013-02-10 18:02:00,
2013-02-10 13:12:00,30.0,20.0,-100.00,SSW,200,5.0,9.0,67,-99.99,,,-99.99,,2013-02-10 18:12:00,
2013-02-10 13:22:00,28.0,19.0,-100.00,SSW,200,11.0,15.0,69,-99.99,,,-99.99,,2013-02-10 18:22:00,
2013-02-10 13:32:00,28.0,20.0,-100.00,South,180,6.0,13.0,70,-99.99,,,-99.99,,2013-02-10 18:32:00,
2013-02-10 13:42:00,28.0,20.0,-100.00,South,180,6.0,13.0,70,-99.99,,,-99.99,,2013-02-10 18:42:00,
2013-02-10 13:52:00,29.0,20.0,-100.00,South,190,6.0,15.0,69,-99.99,,,-99.99,,2013-02-10 18:52:00,
2013-02-10 14:02:00,30.0,21.0,-100.00,SW,235,6.0,14.0,69,-99.99,,,-99.99,,2013-02-10 19:02:00,
2013-02-10 14:12:00,30.0,21.0,-100.00,SW,235,6.0,14.0,69,-99.99,,,-99.99,,2013-02-10 19:12:00,
2013-02-10 14:22:00,29.0,22.0,-100.00,SSW,205,12.0,19.0,74,-99.99,,,-99.99,,2013-02-10 19:22:00,
2013-02-10 14:32:00,29.0,22.0,-100.00,SW,215,11.0,19.0,73,-99.99,,,-99.99,,2013-02-10 19:32:00,
2013-02-10 14:43:00,29.0,22.0,-100.00,SW,215,11.0,19.0,73,-99.99,,,-99.99,,2013-02-10 19:43:00,
2013-02-10 14:52:00,29.0,23.0,-100.00,SSW,210,11.0,19.0,77,-99.99,,,-99.99,,2013-02-10 19:52:00,
2013-02-10 15:02:00,30.0,24.0,-100.00,SSW,210,8.0,18.0,80,-99.99,,,-99.99,,2013-02-10 20:02:00,
2013-02-10 15:11:00,30.0,24.0,-100.00,SSW,210,8.0,18.0,80,-99.99,,,-99.99,,2013-02-10 20:11:00,
2013-02-10 15:22:00,30.0,23.0,-100.00,SW,230,10.0,24.0,77,-99.99,,,-99.99,,2013-02-10 20:22:00,
2013-02-10 15:32:00,30.0,23.0,-100.00,SW,225,14.0,22.0,77,-99.99,,,-99.99,,2013-02-10 20:32:00,
2013-02-10 15:42:00,30.0,23.0,-100.00,SW,225,14.0,22.0,77,-99.99,,,-99.99,,2013-02-10 20:42:00,
2013-02-10 15:52:00,30.0,24.0,-100.00,SSW,205,14.0,24.0,79,-99.99,,,-99.99,,2013-02-10 20:52:00,
2013-02-10 16:03:00,31.0,25.0,-100.00,SSW,210,9.0,23.0,78,-99.99,,,-99.99,,2013-02-10 21:03:00,
2013-02-10 16:12:00,31.0,25.0,-100.00,SSW,210,9.0,23.0,78,-99.99,,,-99.99,,2013-02-10 21:12:00,
2013-02-10 16:22:00,31.0,25.0,-100.00,SW,215,9.0,18.0,78,-99.99,,,-99.99,,2013-02-10 21:22:00,
2013-02-10 16:32:00,32.0,25.0,-100.00,SW,220,11.0,17.0,75,-99.99,,,-99.99,,2013-02-10 21:32:00,
2013-02-10 16:42:00,32.0,25.0,-100.00,SW,220,11.0,17.0,75,-99.99,,,-99.99,,2013-02-10 21:42:00,
2013-02-10 16:52:00,32.0,26.0,-100.00,SW,220,12.0,22.0,78,-99.99,,,-99.99,,2013-02-10 21:52:00,
2013-02-10 17:02:00,32.0,26.0,-100.00,SW,235,11.0,23.0,81,-99.99,,,-99.99,,2013-02-10 22:02:00,
2013-02-10 17:12:00,32.0,26.0,-100.00,SW,235,11.0,23.0,81,-99.99,,,-99.99,,2013-02-10 22:12:00,
2013-02-10 17:22:00,32.0,27.0,-100.00,SSW,200,11.0,23.0,83,-99.99,,,-99.99,,2013-02-10 22:22:00,
2013-02-10 17:32:00,32.0,27.0,-100.00,SSW,195,13.0,21.0,83,-99.99,,,-99.99,,2013-02-10 22:32:00,
2013-02-10 17:42:00,32.0,27.0,-100.00,SSW,195,13.0,21.0,83,-99.99,,,-99.99,,2013-02-10 22:42:00,
2013-02-10 17:52:00,32.0,28.0,-100.00,SSW,205,14.0,26.0,86,-99.99,,,-99.99,,2013-02-10 22:52:00,
2013-02-10 18:02:00,32.0,28.0,-100.00,South,185,15.0,31.0,86,-99.99,,,-99.99,,2013-02-10 23:02:00,
2013-02-10 18:12:00,32.0,28.0,-100.00,South,185,15.0,31.0,86,-99.99,,,-99.99,,2013-02-10 23:12:00,
2013-02-10 18:22:00,32.0,28.0,-100.00,SSW,205,17.0,31.0,87,-99.99,,,-99.99,,2013-02-10 23:22:00,
2013-02-10 18:32:00,32.0,29.0,-100.00,SSW,195,16.0,29.0,88,-99.99,,,-99.99,,2013-02-10 23:32:00,
2013-02-10 18:42:00,32.0,29.0,-100.00,SSW,195,16.0,29.0,88,-99.99,,,-99.99,,2013-02-10 23:42:00,
2013-02-10 18:52:00,32.0,29.0,-100.00,SSW,210,15.0,30.0,90,-99.99,,,-99.99,,2013-02-10 23:52:00,
2013-02-10 19:02:00,32.0,29.0,-100.00,SW,225,14.0,28.0,90,-99.99,,,-99.99,,2013-02-11 00:02:00,
2013-02-10 19:11:00,32.0,29.0,-100.00,SW,225,14.0,28.0,90,-99.99,,,-99.99,,2013-02-11 00:11:00,
2013-02-10 19:22:00,32.0,29.0,-100.00,North,0,10.0,28.0,90,-99.99,,,-99.99,,2013-02-11 00:22:00,
2013-02-10 19:32:00,31.0,29.0,-100.00,SE,125,15.0,36.0,90,-99.99,,,-99.99,,2013-02-11 00:32:00,
2013-02-10 19:42:00,31.0,29.0,-100.00,SE,125,15.0,36.0,90,-99.99,,,-99.99,,2013-02-11 00:42:00,
2013-02-10 19:52:00,31.0,29.0,-100.00,SSW,205,17.0,34.0,90,-99.99,,,-99.99,,2013-02-11 00:52:00,
2013-02-10 20:02:00,32.0,29.0,-100.00,North,0,2.0,101.0,91,-99.99,,,-99.99,,2013-02-11 01:02:00,
2013-02-10 20:11:00,32.0,29.0,-100.00,North,0,2.0,101.0,91,-99.99,,,-99.99,,2013-02-11 01:11:00,
2013-02-10 20:21:00,32.0,30.0,-100.00,North,0,3.0,37.0,92,-99.99,,,-99.99,,2013-02-11 01:21:00,
2013-02-10 20:32:00,32.0,30.0,-100.00,North,0,23.0,99.0,92,-99.99,,,-99.99,,2013-02-11 01:32:00,
2013-02-10 20:42:00,32.0,30.0,-100.00,North,0,23.0,99.0,92,-99.99,,,-99.99,,2013-02-11 01:42:00,
2013-02-10 20:52:00,32.0,30.0,-100.00,SE,135,1.0,59.0,93,-99.99,,,-99.99,,2013-02-11 01:52:00,
2013-02-10 21:01:00,32.0,30.0,-100.00,SW,225,12.0,60.0,93,-99.99,,,-99.99,,2013-02-11 02:01:00,
2013-02-10 21:11:00,32.0,30.0,-100.00,SW,225,12.0,60.0,93,-99.99,,,-99.99,,2013-02-11 02:11:00,
2013-02-10 21:21:00,32.0,30.0,-100.00,SSE,160,4.0,59.0,93,-99.99,,,-99.99,,2013-02-11 02:21:00,
2013-02-10 21:32:00,32.0,30.0,-100.00,SW,225,5.0,36.0,93,-99.99,,,-99.99,,2013-02-11 02:32:00,
2013-02-10 21:42:00,32.0,30.0,-100.00,SW,225,5.0,36.0,93,-99.99,,,-99.99,,2013-02-11 02:42:00,
2013-02-10 21:52:00,32.0,31.0,-100.00,North,0,9.0,61.0,93,-99.99,,,-99.99,,2013-02-11 02:52:00,
2013-02-10 22:02:00,32.0,31.0,-100.00,North,0,9.0,61.0,93,-99.99,,,-99.99,,2013-02-11 03:02:00,
2013-02-10 22:11:00,32.0,31.0,-100.00,North,0,9.0,61.0,93,-99.99,,,-99.99,,2013-02-11 03:11:00,
2013-02-10 22:21:00,33.0,31.0,-100.00,North,0,2.0,32.0,94,-99.99,,,-99.99,,2013-02-11 03:21:00,
2013-02-10 22:32:00,33.0,31.0,-100.00,NW,315,4.0,30.0,94,-99.99,,,-99.99,,2013-02-11 03:32:00,
2013-02-10 22:42:00,33.0,31.0,-100.00,NW,315,4.0,30.0,94,-99.99,,,-99.99,,2013-02-11 03:42:00,
2013-02-10 22:52:00,33.0,31.0,-100.00,South,180,23.0,98.0,94,-99.99,,,-99.99,,2013-02-11 03:52:00,
2013-02-10 23:02:00,33.0,31.0,-100.00,South,180,23.0,98.0,94,-99.99,,,-99.99,,2013-02-11 04:02:00,
2013-02-10 23:11:00,33.0,31.0,-100.00,South,180,23.0,98.0,94,-99.99,,,-99.99,,2013-02-11 04:11:00,
2013-02-10 23:22:00,33.0,31.0,-100.00,NW,315,9.0,72.0,94,-99.99,,,-99.99,,2013-02-11 04:22:00,
2013-02-10 23:32:00,33.0,31.0,-100.00,North,0,0.0,103.0,95,-99.99,,,-99.99,,2013-02-11 04:32:00,
2013-02-10 23:42:00,33.0,31.0,-100.00,North,0,0.0,103.0,95,-99.99,,,-99.99,,2013-02-11 04:42:00,